(197920) = 2004 RL52

Discovered at Socorro on 2004-09-08 by LINEAR.

Orbit

Orbit type: Main Belt

Note: WebGL enabled browser required.

epoch2023-02-25.0
epoch JD2460000.5
perihelion date2020-10-26.33517
perihelion JD2459148.83517
argument of perihelion (°)313.75070
ascending node (°)357.12246
inclination (°)6.82734
eccentricity0.1637870
perihelion distance (AU)2.1474654
Tisserand w.r.t. Jupiter3.4
ΔV w.r.t. Earth (km/sec)9.4
semimajor axis (AU)2.5680841
mean anomaly (°)203.96643
mean daily motion (°/day)0.23949140
aphelion distance (AU)2.989
period (years)4.12
P-vector [x]0.65464392
P-vector [y]-0.65491165
P-vector [z]-0.37753420
Q-vector [x]0.75591383
Q-vector [y]0.56319491
Q-vector [z]0.33377504
absolute magnitude16.84
phase slope0.15
uncertainty0
referenceMPEC 2023-D42
observations used198
oppositions15
arc length (days)8176
first opposition used2000
last opposition used2023
residual rms (arc-secs)0.78
perturbers coarse indicatorM-v
perturbers precise indicator003Ek
first observation date used2000-10-02.0
last observation date used2023-02-20.0
computer nameMPCLINUX
JD of orbit computation2456639.768294
perihelion JD uncertainty (days)1.0079E-04
argument of perihelion uncertainty (°)5.1685E-05
ascending node uncertainty (°)4.2695E-05
inclination uncertainty (°)1.0460E-05
eccentricity uncertainty 8.9707E-08
perihelion distance uncertainty (AU)2.3902E-07
Minimum Orbit Intersection Distances (in AU)
for orbit epoch: 2460000.5, reference: E2023-D42
Mercury1.71211
Venus1.42
Earth1.13906
Mars0.75785
Jupiter2.30026
Saturn6.16333
Uranus15.5128
Neptune27.2567

Observations

206 total observations over interval: 2000 10 02.38404 – 2023 02 20.592555
These data are available for download (format description).

Date (UT) J2000 RA J2000 Dec Magn Location Ref
2000 10 02.38404 00 39 57.75 +07 17 42.2 19.0   704 – Lincoln Laboratory ETS, New Mexico MPS 213128
2000 10 02.39918 00 39 56.77 +07 17 40.1 18.9   704 – Lincoln Laboratory ETS, New Mexico MPS 213128
2000 10 02.41444 00 39 55.90 +07 17 38.2 19.1   704 – Lincoln Laboratory ETS, New Mexico MPS 213128
2000 10 02.42935 00 39 55.04 +07 17 35.4 19.0   704 – Lincoln Laboratory ETS, New Mexico MPS 213128
2003 05 03.17170 12 34 02.28 -08 31 36.9 21.2 V 691 – Steward Observatory, Kitt Peak-Spacewatch MPS 208062
2003 05 03.19841 12 34 01.18 -08 31 32.5 21.7 V 691 – Steward Observatory, Kitt Peak-Spacewatch MPS 208062
2003 05 03.22586 12 34 00.03 -08 31 27.9 21.5 V 691 – Steward Observatory, Kitt Peak-Spacewatch MPS 208062
2004 08 27.32558 23 53 41.53 -03 05 04.9 19.0 R 699 – Lowell Observatory-LONEOS MPS 114442
2004 08 27.33855 23 53 40.84 -03 05 05.7   699 – Lowell Observatory-LONEOS MPS 114442
2004 08 27.35150 23 53 40.33 -03 05 08.3   699 – Lowell Observatory-LONEOS MPS 114442
2004 08 27.36445 23 53 39.64 -03 05 07.4   699 – Lowell Observatory-LONEOS MPS 114442
2004 09 08.23189 23 43 23.77 -03 22 28.0 19.8   704 – Lincoln Laboratory ETS, New Mexico MPS 112862
2004 09 08.24334 23 43 23.20 -03 22 31.2 19.9   704 – Lincoln Laboratory ETS, New Mexico MPS 112862
2004 09 08.26628 23 43 21.83 -03 22 31.3 19.9   704 – Lincoln Laboratory ETS, New Mexico MPS 112862
2004 09 08.27780 23 43 21.13 -03 22 34.4 20.0   704 – Lincoln Laboratory ETS, New Mexico MPS 112862
2004 09 09.23148 23 42 26.95 -03 24 15.7 19.4   704 – Lincoln Laboratory ETS, New Mexico MPS 112862
2004 09 09.24287 23 42 26.22 -03 24 16.9 19.4   704 – Lincoln Laboratory ETS, New Mexico MPS 112862
2004 09 09.25427 23 42 25.55 -03 24 18.4 19.8   704 – Lincoln Laboratory ETS, New Mexico MPS 112862
2004 09 09.26567 23 42 24.89 -03 24 19.4 19.3   704 – Lincoln Laboratory ETS, New Mexico MPS 112862
2004 09 09.27707 23 42 24.23 -03 24 20.0 20.0   704 – Lincoln Laboratory ETS, New Mexico MPS 112862
2004 09 10.33863 23 41 23.09 -03 26 15.5 19.2 V 691 – Steward Observatory, Kitt Peak-Spacewatch MPS 112862
2004 09 10.36860 23 41 21.29 -03 26 18.7 19.3 V 691 – Steward Observatory, Kitt Peak-Spacewatch MPS 112862
2004 09 10.39954 23 41 19.43 -03 26 22.1 19.3 V 691 – Steward Observatory, Kitt Peak-Spacewatch MPS 112862
2004 09 13.28071 23 38 32.53 -03 31 38.3 18.7 R 699 – Lowell Observatory-LONEOS MPS 120511
2004 09 13.30015 23 38 31.44 -03 31 40.3   699 – Lowell Observatory-LONEOS MPS 120511
2004 09 13.31957 23 38 30.24 -03 31 42.9   699 – Lowell Observatory-LONEOS MPS 120511
2004 09 13.33901 23 38 29.02 -03 31 45.6   699 – Lowell Observatory-LONEOS MPS 120511
2004 09 16.25553 23 35 39.34 -03 37 03.0 19.3 V 691 – Steward Observatory, Kitt Peak-Spacewatch MPS 113057
2004 09 16.28305 23 35 37.68 -03 37 05.9 19.2 V 691 – Steward Observatory, Kitt Peak-Spacewatch MPS 113057
2004 09 16.31419 23 35 35.79 -03 37 09.3 19.2 V 691 – Steward Observatory, Kitt Peak-Spacewatch MPS 113057
2004 09 16.89904 23 35 01.97 -03 38 13.7   621 – Bergisch Gladbach MPS 114442
2004 09 16.91270 23 35 01.21 -03 38 15.6   621 – Bergisch Gladbach MPS 114442
2004 09 16.92635 23 35 00.38 -03 38 16.9 19 R 621 – Bergisch Gladbach MPS 114442
2004 09 17.26848 23 34 40.45 -03 38 52.1 19.0   704 – Lincoln Laboratory ETS, New Mexico MPS 113057
2004 09 17.28005 23 34 39.81 -03 38 52.2 19.4   704 – Lincoln Laboratory ETS, New Mexico MPS 113057
2004 09 17.28015 23 34 39.79 -03 38 52.8 19.6   704 – Lincoln Laboratory ETS, New Mexico MPS 113057
2004 09 17.29173 23 34 39.08 -03 38 53.7 19.4   704 – Lincoln Laboratory ETS, New Mexico MPS 113057
2004 09 17.29183 23 34 39.05 -03 38 53.0 20.0   704 – Lincoln Laboratory ETS, New Mexico MPS 113057
2004 09 17.30341 23 34 38.37 -03 38 54.5 19.2   704 – Lincoln Laboratory ETS, New Mexico MPS 113057
2004 09 17.30351 23 34 38.40 -03 38 55.3 19.5   704 – Lincoln Laboratory ETS, New Mexico MPS 113057
2004 09 17.31509 23 34 37.69 -03 38 55.5 19.5   704 – Lincoln Laboratory ETS, New Mexico MPS 113057
2004 09 17.31520 23 34 37.69 -03 38 56.3 19.3   704 – Lincoln Laboratory ETS, New Mexico MPS 113057
2004 09 17.88476 23 34 04.92 -03 39 58.4 19.3 V A50 – Andrushivka Astronomical Observatory MPS 114442
2004 09 17.88653 23 34 04.78 -03 39 57.7 19.3 V A50 – Andrushivka Astronomical Observatory MPS 114442
2004 09 17.90606 23 34 03.28 -03 40 00.5 18.6 V A50 – Andrushivka Astronomical Observatory MPS 114442
2004 09 17.90785 23 34 03.35 -03 40 00.5 19.0 V A50 – Andrushivka Astronomical Observatory MPS 114442
2004 09 22.12332 23 30 04.22 -03 46 57.1 19.6 V 691 – Steward Observatory, Kitt Peak-Spacewatch MPS 114442
2004 09 22.17342 23 30 01.35 -03 47 01.7 19.6 V 691 – Steward Observatory, Kitt Peak-Spacewatch MPS 114442
2004 09 22.20012 23 29 59.82 -03 47 04.4 19.5 V 691 – Steward Observatory, Kitt Peak-Spacewatch MPS 114442
2004 10 12.09011 23 15 05.48 -04 00 28.1 20.4 V 691 – Steward Observatory, Kitt Peak-Spacewatch MPS 116658
2004 10 12.10744 23 15 04.92 -04 00 27.7 20.3 V 691 – Steward Observatory, Kitt Peak-Spacewatch MPS 116658
2004 10 12.12407 23 15 04.37 -04 00 26.9 20.3 V 691 – Steward Observatory, Kitt Peak-Spacewatch MPS 116658
2007 03 09.32126 12 34 14.79 -04 37 52.0 20.9 V 691 – Steward Observatory, Kitt Peak-Spacewatch MPS 208062
2007 03 09.33885 12 34 13.87 -04 37 48.4 20.8 V 691 – Steward Observatory, Kitt Peak-Spacewatch MPS 208062
2007 03 09.35644 12 34 13.07 -04 37 46.3 21.2 V 691 – Steward Observatory, Kitt Peak-Spacewatch MPS 208062
2007 03 26.29737 12 19 09.76 -03 44 21.8 20.2 V G96 – Mt. Lemmon Survey MPS 208062
2007 03 26.30558 12 19 09.26 -03 44 20.0 20.4 V G96 – Mt. Lemmon Survey MPS 208062
2007 03 26.31380 12 19 08.79 -03 44 18.4 19.7 V G96 – Mt. Lemmon Survey MPS 208062
2007 03 26.32206 12 19 08.29 -03 44 16.3 19.9 V G96 – Mt. Lemmon Survey MPS 208062
2007 03 26.35273 12 19 06.49 -03 44 09.2 19.6 V G96 – Mt. Lemmon Survey MPS 208062
2007 04 19.21395 11 58 06.78 -02 22 05.4 20.8 V G96 – Mt. Lemmon Survey MPS 208062
2007 04 19.22120 11 58 06.45 -02 22 04.1 20.8 V G96 – Mt. Lemmon Survey MPS 208062
2007 04 19.22844 11 58 06.09 -02 22 03.1 20.5 V G96 – Mt. Lemmon Survey MPS 208062
2007 04 19.23559 11 58 05.77 -02 22 01.9 20.5 V G96 – Mt. Lemmon Survey MPS 208062
2007 04 20.21106 11 57 24.30 -02 19 24.1 21.1 V G96 – Mt. Lemmon Survey MPS 208062
2007 04 20.21673 11 57 24.04 -02 19 23.3 20.8 V G96 – Mt. Lemmon Survey MPS 208062
2007 04 20.22223 11 57 23.83 -02 19 22.2 20.8 V G96 – Mt. Lemmon Survey MPS 208062
2007 04 20.22777 11 57 23.58 -02 19 21.3 20.7 V G96 – Mt. Lemmon Survey MPS 208062
2008 08 03.06271 22 48 50.56 -14 30 06.8 19.4 V J75 – OAM Observatory, La Sagra MPS 254004
2008 08 03.06711 22 48 50.40 -14 30 06.5 19.2 V J75 – OAM Observatory, La Sagra MPS 254004
2008 08 03.07829 22 48 49.94 -14 30 07.9 19.2 V J75 – OAM Observatory, La Sagra MPS 254004
2008 08 03.08278 22 48 49.81 -14 30 08.3 19.1 V J75 – OAM Observatory, La Sagra MPS 254004
2008 08 03.09400 22 48 49.33 -14 30 09.3 19.4 V J75 – OAM Observatory, La Sagra MPS 254004
2008 08 03.09847 22 48 49.20 -14 30 09.1 19.7 V J75 – OAM Observatory, La Sagra MPS 254004
2008 08 04.05316 22 48 13.78 -14 31 27.3 19.1 V J75 – OAM Observatory, La Sagra MPS 254004
2008 08 04.07291 22 48 12.97 -14 31 29.0 19.2 V J75 – OAM Observatory, La Sagra MPS 254004
2008 08 04.09272 22 48 12.21 -14 31 31.2 19.3 V J75 – OAM Observatory, La Sagra MPS 254004
2008 08 23.27083 22 32 13.50 -15 01 22.5 19.0   704 – Lincoln Laboratory ETS, New Mexico MPS 254471
2008 08 23.28381 22 32 12.73 -15 01 24.2 19.3   704 – Lincoln Laboratory ETS, New Mexico MPS 254471
2008 08 23.29692 22 32 11.94 -15 01 26.8 19.7   704 – Lincoln Laboratory ETS, New Mexico MPS 254471
2008 08 23.31002 22 32 11.08 -15 01 26.5 19.1   704 – Lincoln Laboratory ETS, New Mexico MPS 254471
2008 08 23.32307 22 32 10.21 -15 01 28.3 19.3   704 – Lincoln Laboratory ETS, New Mexico MPS 254471
2008 08 25.40461 22 30 09.31 -15 04 00.3 18.9 V F84 – Hibiscus Observatory, Punaauia MPS 254471
2008 08 25.44334 22 30 06.96 -15 04 02.6 18.5 V F84 – Hibiscus Observatory, Punaauia MPS 254471
2008 08 25.48180 22 30 04.60 -15 04 05.0 19.1 V F84 – Hibiscus Observatory, Punaauia MPS 254471
